Regional Weather Roundup
Issued by NWS Goodland, KS

Home | Current Version | Previous Version | Text Only | Print | Product List | Glossary Off
Versions: 1 2 3 4 5 6 7 8 9 10 11 12 13 14 15 16 17 18 19 20 21 22 23 24 25 26 27 28 29 30 31 32 33 34 35 36 37 38 39 40 41 42 43 44 45 46 47 48 49 50

000
ASUS43 KGLD 310208
RWRGLD

GOODLAND FORECAST AREA HOURLY WEATHER ROUNDUP
NATIONAL WEATHER SERVICE GOODLAND KS
800 PM MDT THU JUL 30 2015

...OFFICIAL OBSERVATIONS...

CITY           SKY/WX    TMP DP  RH WIND       PRES   REMARKS
GOODLAND KS    PTCLDY    73  60  63 SW5       30.26R
HILL CITY KS   CLEAR     80  66  62 S7        30.16R
IMPERIAL NEB   CLOUDY    81  58  45 E7        30.19R
MCCOOK NEB     MOCLDY    80  63  55 SE7       30.16R
AKRON CO       PTCLDY    68  58  70 S16       30.29R
BURLINGTON CO  MOCLDY    72  60  66 W17G29    30.33R
LIMON CO       PTCLDY    70  57  63 SE9       30.32R
$$

...UNOFFICIAL OBSERVATIONS...

CITY           SKY/WX    TMP DP  RH WIND       PRES   REMARKS
COLBY KS       CLEAR     75  66  73 SE5       30.23R
NORTON KS      CLEAR     75  59  57 SE3       30.15S
SHARON SPRINGS   N/A     76  67  72 S6          N/A
KIT CARSON CO    N/A     77  64  63 MISG        N/A
YUMA CO          N/A     68  61  78 SW10        N/A
$$


USA.gov is the U.S. government's official web portal to all federal, state and local government web resources and services.